TimeMDT,TemperatureF,Dew PointF,Humidity,Sea Level PressureIn,VisibilityMPH,Wind Direction,Wind SpeedMPH,Gust SpeedMPH,PrecipitationIn,Events,Conditions,WindDirDegrees,DateUTC
12:15 AM,68.0,37.4,33,30.00,10.0,SSE,4.6,-,N/A,,Clear,160,2012-10-10 06:15:00
12:35 AM,68.0,35.6,30,30.00,10.0,Calm,Calm,-,N/A,,Clear,0,2012-10-10 06:35:00
12:55 AM,68.0,35.6,30,30.00,10.0,East,6.9,-,N/A,,Mostly Cloudy,90,2012-10-10 06:55:00
1:15 AM,69.8,37.4,31,30.00,10.0,ESE,5.8,-,N/A,,Overcast,110,2012-10-10 07:15:00
1:35 AM,69.8,35.6,28,30.00,10.0,ESE,10.4,-,N/A,,Overcast,110,2012-10-10 07:35:00
1:55 AM,69.8,35.6,28,30.01,10.0,ESE,9.2,-,N/A,,Overcast,110,2012-10-10 07:55:00
2:35 AM,68.0,35.6,30,30.02,10.0,Calm,Calm,-,N/A,,Clear,0,2012-10-10 08:35:00
3:15 AM,66.2,35.6,32,30.02,10.0,South,4.6,-,N/A,,Partly Cloudy,170,2012-10-10 09:15:00
3:55 AM,66.2,35.6,32,30.02,10.0,Calm,Calm,-,N/A,,Clear,0,2012-10-10 09:55:00
4:15 AM,64.4,35.6,34,30.01,10.0,East,5.8,-,N/A,,Clear,90,2012-10-10 10:15:00
4:35 AM,64.4,37.4,37,30.01,10.0,East,9.2,-,N/A,,Clear,100,2012-10-10 10:35:00
4:55 AM,64.4,35.6,34,30.01,10.0,ESE,9.2,-,N/A,,Clear,110,2012-10-10 10:55:00
5:55 AM,62.6,35.6,37,30.02,10.0,SSW,5.8,-,N/A,,Clear,200,2012-10-10 11:55:00
6:15 AM,62.6,35.6,37,30.02,10.0,Calm,Calm,-,N/A,,Clear,0,2012-10-10 12:15:00
6:35 AM,62.6,37.4,39,30.02,10.0,Calm,Calm,-,N/A,,Clear,0,2012-10-10 12:35:00
6:55 AM,62.6,37.4,39,30.03,10.0,SW,3.5,-,N/A,,Clear,220,2012-10-10 12:55:00
7:35 AM,60.8,35.6,39,30.03,10.0,Calm,Calm,-,N/A,,Scattered Clouds,0,2012-10-10 13:35:00
7:55 AM,62.6,37.4,39,30.04,10.0,SE,5.8,-,N/A,,Scattered Clouds,140,2012-10-10 13:55:00
8:15 AM,64.4,39.2,40,30.04,10.0,ESE,5.8,-,N/A,,Mostly Cloudy,120,2012-10-10 14:15:00
8:35 AM,64.4,39.2,40,30.05,10.0,SE,3.5,-,N/A,,Mostly Cloudy,140,2012-10-10 14:35:00
8:55 AM,66.2,39.2,37,30.05,10.0,ENE,5.8,-,N/A,,Mostly Cloudy,60,2012-10-10 14:55:00
9:15 AM,66.2,37.4,35,30.06,10.0,NE,4.6,-,N/A,,Mostly Cloudy,40,2012-10-10 15:15:00
9:35 AM,69.8,39.2,33,30.06,10.0,NE,3.5,-,N/A,,Scattered Clouds,40,2012-10-10 15:35:00
9:55 AM,68.0,37.4,33,30.06,10.0,South,4.6,-,N/A,,Clear,190,2012-10-10 15:55:00
10:15 AM,68.0,39.2,35,30.06,10.0,Calm,Calm,-,N/A,,Clear,0,2012-10-10 16:15:00
10:55 AM,71.6,39.2,31,30.06,10.0,SW,3.5,-,N/A,,Mostly Cloudy,220,2012-10-10 16:55:00
11:15 AM,73.4,39.2,29,30.05,10.0,WSW,3.5,-,N/A,,Partly Cloudy,250,2012-10-10 17:15:00
11:35 AM,73.4,41.0,31,30.04,10.0,Calm,Calm,-,N/A,,Clear,0,2012-10-10 17:35:00
11:55 AM,75.2,41.0,29,30.03,10.0,WNW,5.8,-,N/A,,Partly Cloudy,290,2012-10-10 17:55:00
12:15 PM,75.2,42.8,31,30.03,10.0,West,10.4,-,N/A,,Scattered Clouds,280,2012-10-10 18:15:00
12:36 PM,75.2,42.8,31,30.03,10.0,WNW,5.8,-,N/A,,Scattered Clouds,290,2012-10-10 18:36:00
12:55 PM,78.8,44.6,30,30.02,10.0,Calm,Calm,-,N/A,,Partly Cloudy,0,2012-10-10 18:55:00
1:15 PM,78.8,46.4,32,30.01,10.0,West,8.1,-,N/A,,Clear,260,2012-10-10 19:15:00
1:35 PM,78.8,46.4,32,30.00,10.0,West,10.4,-,N/A,,Clear,260,2012-10-10 19:35:00
1:55 PM,78.8,46.4,32,29.98,10.0,WNW,6.9,-,N/A,,Clear,290,2012-10-10 19:55:00
2:15 PM,80.6,46.4,30,29.97,10.0,WNW,8.1,-,N/A,,Clear,300,2012-10-10 20:15:00
2:35 PM,78.8,46.4,32,29.97,10.0,NW,5.8,-,N/A,,Clear,310,2012-10-10 20:35:00
2:55 PM,78.8,44.6,30,29.96,10.0,West,8.1,-,N/A,,Clear,270,2012-10-10 20:55:00
3:15 PM,78.8,44.6,30,29.95,10.0,SW,5.8,-,N/A,,Clear,230,2012-10-10 21:15:00
3:35 PM,80.6,42.8,26,29.94,10.0,West,6.9,-,N/A,,Clear,270,2012-10-10 21:35:00
3:55 PM,80.6,42.8,26,29.94,10.0,WNW,5.8,-,N/A,,Clear,290,2012-10-10 21:55:00
4:15 PM,82.4,42.8,25,29.93,10.0,Calm,Calm,-,N/A,,Clear,0,2012-10-10 22:15:00
4:35 PM,80.6,41.0,24,29.92,10.0,Calm,Calm,-,N/A,,Clear,0,2012-10-10 22:35:00
4:55 PM,80.6,41.0,24,29.91,10.0,Calm,Calm,-,N/A,,Clear,0,2012-10-10 22:55:00
5:15 PM,80.6,39.2,23,29.91,10.0,West,3.5,-,N/A,,Clear,270,2012-10-10 23:15:00
5:55 PM,80.6,41.0,24,29.90,10.0,NNW,3.5,-,N/A,,Clear,340,2012-10-10 23:55:00
6:15 PM,80.6,41.0,24,29.90,10.0,North,6.9,-,N/A,,Clear,10,2012-10-11 00:15:00
6:35 PM,80.6,39.2,23,29.90,10.0,NNW,4.6,-,N/A,,Clear,340,2012-10-11 00:35:00
7:35 PM,78.8,39.2,24,29.90,10.0,West,5.8,-,N/A,,Scattered Clouds,270,2012-10-11 01:35:00
7:55 PM,78.8,39.2,24,29.91,10.0,West,6.9,-,N/A,,Mostly Cloudy,270,2012-10-11 01:55:00
8:15 PM,78.8,39.2,24,29.91,10.0,West,6.9,-,N/A,,Mostly Cloudy,260,2012-10-11 02:15:00
8:35 PM,77.0,39.2,26,29.91,10.0,West,6.9,-,N/A,,Clear,270,2012-10-11 02:35:00
8:55 PM,75.2,39.2,27,29.92,10.0,WSW,8.1,-,N/A,,Clear,250,2012-10-11 02:55:00
9:15 PM,75.2,41.0,29,29.92,10.0,West,8.1,-,N/A,,Mostly Cloudy,270,2012-10-11 03:15:00
11:35 PM,66.2,39.2,37,29.95,10.0,SSE,6.9,-,N/A,,Clear,150,2012-10-11 05:35:00
11:55 PM,66.2,39.2,37,29.95,10.0,SSE,4.6,-,N/A,,Clear,160,2012-10-11 05:55:00